When you browse on this site, cookies collect data to enhance your experience and personalize the content and advertising you see.
Visit our Privacy Policy to learn more. By continuing to use the site, you agree to this use of cookies and data.
  • In Hungary
  • List of Countries
  • For 7 days
  • Water Temperature
  • Weather Map
  • News
  • Weather Widgets
  • user-avatar
    Login

    Hourly Weather Markovichi

    Today, 8 April, Wednesday

    Time Temperature Precipitation Wind Pressure Humidity
    00:00 +7°C° 0 mm 6 mps 750 mmHg 62%
    01:00 +7°C° 0 mm 6 mps 749 mmHg 66%
    02:00 +7°C° 0 mm 6 mps 748 mmHg 71%
    03:00 +7°C° 0 mm 6 mps 748 mmHg 75%
    04:00 +5°C° 0 mm 6 mps 748 mmHg 79%
    05:00 +4°C° 0 mm 6 mps 748 mmHg 84%
    06:00 +5°C° 0 mm 6 mps 748 mmHg 80%
    07:00 +5°C° 0 mm 6 mps 749 mmHg 76%
    08:00 +5°C° 0 mm 6 mps 749 mmHg 73%
    09:00 +7°C° 0 mm 6 mps 749 mmHg 71%
    10:00 +7°C° 0 mm 6 mps 750 mmHg 69%
    11:00 +8°C° 0 mm 7 mps 750 mmHg 67%
    12:00 +8°C° 0 mm 6 mps 750 mmHg 65%
    13:00 +9°C° 0 mm 6 mps 750 mmHg 63%
    14:00 +9°C° 0 mm 6 mps 750 mmHg 61%
    15:00 +9°C° 0 mm 5 mps 750 mmHg 60%
    16:00 +10°C° 0 mm 5 mps 750 mmHg 60%
    17:00 +11°C° 0 mm 4 mps 750 mmHg 59%
    18:00 +8°C° 0 mm 4 mps 750 mmHg 64%
    19:00 +8°C° 0 mm 3 mps 750 mmHg 68%
    20:00 +7°C° 0 mm 2 mps 750 mmHg 73%
    21:00 +6°C° 0 mm 2 mps 750 mmHg 74%
    22:00 +6°C° 0 mm 2 mps 750 mmHg 74%
    23:00 +5°C° 0 mm 2 mps 750 mmHg 75%

    Tomorrow, 9 April, Thursday

    Time Temperature Precipitation Wind Pressure Humidity
    00:00 +5°C° 0 mm 2 mps 749 mmHg 75%
    01:00 +4°C° 0 mm 2 mps 749 mmHg 75%
    02:00 +4°C° 0 mm 2 mps 749 mmHg 75%
    03:00 +4°C° 0 mm 2 mps 748 mmHg 76%
    04:00 +3°C° 0 mm 2 mps 748 mmHg 76%
    05:00 +2°C° 0 mm 3 mps 748 mmHg 77%
    06:00 +3°C° 0 mm 3 mps 747 mmHg 73%
    07:00 +4°C° 0 mm 4 mps 747 mmHg 69%
    08:00 +6°C° 0 mm 5 mps 746 mmHg 64%
    09:00 +7°C° 0 mm 5 mps 746 mmHg 60%
    10:00 +9°C° 0 mm 5 mps 745 mmHg 56%
    11:00 +10°C° 0 mm 6 mps 745 mmHg 52%
    12:00 +11°C° 0 mm 6 mps 744 mmHg 51%
    13:00 +13°C° 0 mm 6 mps 743 mmHg 50%
    14:00 +14°C° 0 mm 7 mps 742 mmHg 49%
    15:00 +14°C° 0.1 mm 6 mps 742 mmHg 54%
    16:00 +13°C° 0.1 mm 5 mps 741 mmHg 59%
    17:00 +13°C° 0.1 mm 5 mps 741 mmHg 64%
    18:00 +12°C° 0.8 mm 4 mps 740 mmHg 73%
    19:00 +11°C° 0.8 mm 4 mps 740 mmHg 82%
    20:00 +8°C° 0.8 mm 4 mps 739 mmHg 91%
    21:00 +8°C° 0.1 mm 4 mps 740 mmHg 91%
    22:00 +7°C° 0.1 mm 4 mps 740 mmHg 91%
    23:00 +7°C° 0.1 mm 4 mps 740 mmHg 90%

    Day after tomorrow, 10 April, Friday

    Time Temperature Precipitation Wind Pressure Humidity
    00:00 +6°C° 0.2 mm 4 mps 740 mmHg 87%
    01:00 +5°C° 0.2 mm 5 mps 740 mmHg 84%
    02:00 +5°C° 0.2 mm 5 mps 740 mmHg 81%
    03:00 +3°C° 0 mm 5 mps 741 mmHg 82%
    04:00 +1°C° 0 mm 5 mps 741 mmHg 82%
    05:00 0°C° 0 mm 5 mps 742 mmHg 82%
    06:00 0°C° 0 mm 5 mps 742 mmHg 79%
    07:00 +1°C° 0 mm 5 mps 742 mmHg 75%
    08:00 +1°C° 0 mm 6 mps 743 mmHg 72%
    09:00 +2°C° 0 mm 6 mps 743 mmHg 67%
    10:00 +3°C° 0 mm 6 mps 743 mmHg 63%
    11:00 +4°C° 0 mm 6 mps 743 mmHg 58%
    12:00 +5°C° 0.1 mm 6 mps 744 mmHg 56%
    13:00 +5°C° 0.1 mm 6 mps 744 mmHg 54%
    14:00 +7°C° 0.1 mm 6 mps 744 mmHg 52%
    15:00 +7°C° 0.1 mm 6 mps 744 mmHg 51%
    16:00 +5°C° 0.1 mm 6 mps 744 mmHg 50%
    17:00 +5°C° 0.1 mm 6 mps 744 mmHg 48%
    18:00 +5°C° 0 mm 5 mps 744 mmHg 54%
    19:00 +4°C° 0 mm 4 mps 744 mmHg 60%
    20:00 +3°C° 0 mm 3 mps 744 mmHg 66%
    21:00 +2°C° 0 mm 3 mps 745 mmHg 67%
    22:00 +1°C° 0 mm 4 mps 745 mmHg 69%
    23:00 +1°C° 0 mm 4 mps 745 mmHg 71%

    11 April, Saturday

    Time Temperature Precipitation Wind Pressure Humidity
    00:00 0°C° 0 mm 4 mps 745 mmHg 73%
    01:00 -1°C° 0 mm 5 mps 745 mmHg 75%
    02:00 -1°C° 0 mm 5 mps 745 mmHg 77%
    03:00 -2°C° 0 mm 5 mps 746 mmHg 77%
    04:00 -2°C° 0 mm 5 mps 746 mmHg 77%
    05:00 -4°C° 0 mm 5 mps 747 mmHg 77%
    06:00 -2°C° 0 mm 5 mps 747 mmHg 73%
    07:00 -2°C° 0 mm 6 mps 747 mmHg 69%
    08:00 -2°C° 0 mm 6 mps 748 mmHg 65%
    09:00 -1°C° 0 mm 6 mps 748 mmHg 60%
    10:00 +1°C° 0 mm 6 mps 748 mmHg 56%
    11:00 +2°C° 0 mm 6 mps 749 mmHg 51%
    12:00 +2°C° 0 mm 6 mps 749 mmHg 49%
    13:00 +3°C° 0 mm 6 mps 749 mmHg 48%
    14:00 +3°C° 0 mm 6 mps 749 mmHg 46%
    15:00 +3°C° 0 mm 6 mps 749 mmHg 44%
    16:00 +3°C° 0 mm 6 mps 749 mmHg 42%
    17:00 +3°C° 0 mm 6 mps 749 mmHg 41%
    18:00 +2°C° 0 mm 5 mps 749 mmHg 47%
    19:00 +2°C° 0 mm 3 mps 749 mmHg 53%
    20:00 +1°C° 0 mm 2 mps 749 mmHg 60%
    21:00 0°C° 0 mm 3 mps 750 mmHg 63%
    22:00 0°C° 0 mm 3 mps 750 mmHg 66%
    23:00 0°C° 0 mm 3 mps 750 mmHg 69%

    12 April, Sunday

    Time Temperature Precipitation Wind Pressure Humidity
    00:00 0°C° 0 mm 3 mps 750 mmHg 71%
    01:00 -2°C° 0 mm 4 mps 749 mmHg 73%
    02:00 -2°C° 0 mm 4 mps 749 mmHg 75%
    03:00 -2°C° 0 mm 4 mps 749 mmHg 76%
    04:00 -2°C° 0 mm 4 mps 749 mmHg 77%
    05:00 -1°C° 0 mm 3 mps 749 mmHg 78%
    06:00 0°C° 0 mm 4 mps 749 mmHg 71%
    07:00 +1°C° 0 mm 4 mps 749 mmHg 65%
    08:00 +2°C° 0 mm 5 mps 749 mmHg 59%
    09:00 +3°C° 0 mm 5 mps 748 mmHg 55%
    10:00 +6°C° 0 mm 5 mps 748 mmHg 51%
    11:00 +7°C° 0 mm 5 mps 748 mmHg 47%
    12:00 +7°C° 0 mm 6 mps 747 mmHg 46%
    13:00 +8°C° 0 mm 6 mps 746 mmHg 45%
    14:00 +8°C° 0 mm 6 mps 746 mmHg 43%
    15:00 +8°C° 0 mm 6 mps 745 mmHg 46%
    16:00 +7°C° 0 mm 6 mps 744 mmHg 48%
    17:00 +7°C° 0 mm 6 mps 744 mmHg 51%
    18:00 +5°C° 0 mm 6 mps 743 mmHg 55%
    19:00 +4°C° 0 mm 6 mps 742 mmHg 59%
    20:00 +4°C° 0 mm 6 mps 741 mmHg 63%
    21:00 +3°C° 0.3 mm 7 mps 741 mmHg 72%
    22:00 +3°C° 0.3 mm 7 mps 740 mmHg 81%
    23:00 +2°C° 0.3 mm 7 mps 739 mmHg 90%

    13 April, Monday

    Time Temperature Precipitation Wind Pressure Humidity
    00:00 +3°C° 0.3 mm 7 mps 738 mmHg 85%
    01:00 +3°C° 0.3 mm 7 mps 737 mmHg 81%
    02:00 +4°C° 0.3 mm 8 mps 736 mmHg 77%
    03:00 +4°C° 0.1 mm 8 mps 735 mmHg 76%
    04:00 +4°C° 0.1 mm 7 mps 734 mmHg 75%
    05:00 +4°C° 0.1 mm 7 mps 733 mmHg 74%
    06:00 +5°C° 0.1 mm 7 mps 732 mmHg 75%
    07:00 +5°C° 0.1 mm 8 mps 731 mmHg 76%
    08:00 +6°C° 0.1 mm 8 mps 731 mmHg 77%
    09:00 +6°C° 0.1 mm 8 mps 731 mmHg 77%
    10:00 +7°C° 0.1 mm 8 mps 730 mmHg 78%
    11:00 +7°C° 0.1 mm 8 mps 730 mmHg 78%
    12:00 +6°C° 0.7 mm 7 mps 730 mmHg 81%
    13:00 +5°C° 0.7 mm 6 mps 730 mmHg 84%
    14:00 +4°C° 0.7 mm 6 mps 730 mmHg 87%
    15:00 +4°C° 0.2 mm 6 mps 730 mmHg 81%
    16:00 +3°C° 0.2 mm 6 mps 730 mmHg 76%
    17:00 +3°C° 0.2 mm 5 mps 730 mmHg 71%
    18:00 +2°C° 0 mm 5 mps 730 mmHg 70%
    19:00 +1°C° 0 mm 4 mps 731 mmHg 70%
    20:00 +1°C° 0 mm 4 mps 731 mmHg 70%
    21:00 0°C° 0 mm 4 mps 731 mmHg 70%
    22:00 -1°C° 0 mm 4 mps 731 mmHg 71%
    23:00 -2°C° 0 mm 4 mps 731 mmHg 71%
    Show more